THOR ABLESTAR DEB, 544

Orbit data source: Space-Track

THOR ABLESTAR DEB, 544 is space debris in LEO originally from a launch on Thu, 29 Jun 1961 UTC launched from the Air Force Eastern Test Range (AFETR). Debris objects in space refer to the collection of defunct objects orbiting the Earth. Examples of debris include non-operational satellites, rocket bodies, and fragments generated from explosions, collisions, or faulty payload assembly.

Loading next visibility...
Identifier
544, 1961-015GD
Orbit
LEO
Country
Flag of USUS
Related business
Manufacturer
Unknown
Mission
Spacecraft
Bus & Motor
Unknown
Mass
Unknown
Launch date (UTC)
1961-06-29 (65 years ago)
Launch vehicle
Unknown
Launch site
Air Force Eastern Test Range (AFETR)
Object type
Payload
Rocket body
Debris
Shape & HBR
Unknown shape, 0.1 m
Radar Cross Section
Small (<0.1 m²)

Expand to show TLE details & history
Last TLE update: 16 hours ago

TLE from 16 hours ago
0 THOR ABLESTAR DEB
1   544U 61015GD  26036.73727459  .00000187  00000-0  32660-3 0  9993
2   544  66.8735 161.7800 0187398 350.7470 120.4094 13.56134354183787
Epoch: 2026-02-05T17:41Z
TLE epoch observation values (Epoch: 2026-02-05T17:41:40.524Z)
Latitude
57.95881°
Longitude
-102.28249°
Altitude
1,131.084 km
Speed
7.257 km/s
True Right ascension
19h 56m 05s
True Declination
57° 48' 42"
Sunlit
Object was in daylight at epoch
Visualization orbit readout
Latitude
Unknown
Longitude
Unknown
Altitude
Unknown
Speed
Unknown
Apparent Right ascension
Unknown
Apparent Declination
Unknown
Sunlit
N/A
Visualization observer readout
Local Sidereal Time
11:36:36
Azimuth
Unknown
Elevation
Unknown
Doppler factor
Unknown
Orbital elements
Apogee altitude
1,187.353 km
Perigee altitude
909.018 km
Semi-major axis
7,426.322 km
Eccentricity
0.01874
Inclination
66.8735°
RAAN
161.78°
Arg. of periapsis
350.747°
True anomaly
122.23938°
Mean anomaly
120.4094°
Eccentric anomaly
121.32658°
Mean motion
3.39143 °/min
Orbital period
106.15 mins
BSTAR
0.0003266
Loading maneuver chart data...
Computing Atmospheric mass density...

Documentation

Showing up to 5 results
|